Wetbulb
52.07 48.85 48.86 47.36 47.28 47.37 47.94 48.87 49.16 49.07 49.89 50.17 50.56 50.66 50.59 49.99 49.42 49.03 48.64 48.13 48.33 48.08
52.05 50.03 49.36 47.77 47.80 47.81 48.34 48.60 48.80 49.09 49.42 49.74 50.51 50.92 50.41 50.22 49.11 49.04 48.77 47.90 48.12 47.96
52.70 50.69 50.07 48.09 47.25 47.39 48.14 48.41 48.38 48.68 49.13 49.52 50.15 50.71 50.55 49.43 48.95 48.72 48.30 47.60 47.80 47.53
52.73 50.98 50.03 47.81 47.69 47.50 48.08 48.40 48.46 48.62 48.81 49.22 49.78 50.31 50.63 49.81 49.09 48.64 47.91 47.22 47.71 47.33
52.69 50.86 49.25 47.77 47.75 47.87 47.83 48.41 48.69 48.82 48.95 49.20 50.06 50.41 50.39 49.36 49.47 48.75 47.84 47.39 47.06 46.97
52.38 50.46 48.94 47.97 47.32 47.48 47.89 48.24 48.51 48.62 48.60 48.85 49.93 50.34 50.44 50.27 49.52 49.21 49.06 48.23 47.81 47.80
52.24 50.48 49.62 48.36 47.09 47.27 47.89 47.93 48.07 48.46 48.75 49.15 50.02 50.64 50.28 49.94 49.52 49.08 48.66 48.89 48.65 48.40
52.48 51.22 49.77 47.94 47.06 47.46 47.70 47.92 48.25 48.21 48.45 48.95 49.80 50.32 50.14 49.96 49.53 48.77 47.66 47.98 48.39 48.69
51.71 50.35 49.00 47.54 46.72 46.71 47.07 47.41 47.78 47.71 47.93 48.24 49.43 45.48 45.07 48.28 49.30 48.80 48.07 47.46 46.45 46.00
50.41 49.34 48.45 47.40 46.60 46.49 46.46 47.02 47.11 47.43 47.74 47.74 48.92 44.00 44.18 43.98 49.40 48.96 48.60 47.85 46.34 44.06
49.63 48.57 47.78 46.76 46.56 46.60 46.72 46.63 46.79 47.06 47.46 47.55 48.15 43.62 43.52 42.59 48.99 48.83 48.55 47.83 46.78 46.19
49.22 47.74 46.72 46.46 46.56 46.86 46.81 46.72 46.69 46.86 46.97 47.02 47.10 42.72 42.87 45.58 48.09 47.48 46.72 46.63 46.53 45.81
48.69 47.15 46.74 46.63 46.42 46.93 47.23 46.60 46.17 45.82 47.21 44.49 46.72 41.74 42.90 47.44 48.49 47.39 46.23 44.15 42.95 38.27
47.75 47.11 47.16 46.79 46.86 46.51 46.33 45.74 45.46 44.90 46.00 45.66 45.52 43.85 43.00 44.86 48.11 48.01 47.04 46.18 42.96 41.56
MSLP
1008.50 1009.64 1010.40 1011.53 1012.54 1013.57 1014.22 1014.81 1015.71 1016.19 1016.77 1017.44 1018.01 1018.57 1019.10 1019.76 1020.12 1020.36 1020.72 1020.98 1021.34 1021.72
1007.59 1008.48 1009.48 1010.39 1011.42 1012.36 1013.38 1014.14 1015.01 1015.73 1016.27 1016.88 1017.51 1018.12 1018.70 1019.40 1019.88 1020.29 1020.68 1020.91 1021.44 1021.75
1006.60 1007.63 1008.41 1009.55 1010.44 1011.43 1012.37 1013.33 1014.29 1015.18 1015.79 1016.44 1017.02 1017.62 1018.29 1018.93 1019.46 1020.05 1020.48 1020.84 1021.32 1021.73
1005.35 1006.56 1007.74 1008.65 1009.46 1010.42 1011.49 1012.45 1013.43 1014.33 1015.19 1015.84 1016.49 1017.10 1017.84 1018.45 1019.06 1019.68 1020.21 1020.68 1021.00 1021.56
1004.59 1005.53 1006.59 1007.57 1008.48 1009.52 1010.62 1011.57 1012.51 1013.51 1014.48 1015.24 1015.89 1016.56 1017.20 1017.93 1018.60 1019.19 1019.81 1020.37 1020.82 1021.36
1003.65 1004.60 1005.28 1006.44 1007.52 1008.62 1009.60 1010.69 1011.73 1012.73 1013.54 1014.42 1015.17 1015.93 1016.62 1017.28 1018.01 1018.64 1019.13 1019.78 1020.38 1021.02
1002.21 1003.48 1004.50 1005.66 1006.70 1007.73 1008.65 1009.75 1010.75 1011.66 1012.59 1013.54 1014.44 1015.28 1016.06 1016.80 1017.51 1018.17 1018.74 1019.33 1019.91 1020.65
1001.49 1002.86 1003.99 1005.02 1006.01 1007.11 1007.98 1008.79 1009.87 1010.84 1011.90 1012.76 1013.69 1014.51 1015.32 1016.15 1016.92 1017.63 1018.41 1019.06 1019.63 1020.23
1000.91 1002.29 1003.28 1004.32 1005.44 1006.53 1007.60 1008.29 1009.25 1010.17 1011.02 1011.95 1012.73 1013.62 1014.53 1015.39 1016.28 1017.02 1017.83 1018.63 1019.39 1019.97
1000.32 1001.62 1002.78 1003.82 1004.90 1005.84 1006.89 1007.81 1008.59 1009.53 1010.40 1011.27 1011.96 1012.81 1013.83 1014.76 1015.70 1016.45 1017.26 1018.00 1018.94 1019.79
1000.04 1001.19 1002.38 1003.43 1004.25 1005.41 1006.21 1007.07 1007.81 1008.79 1009.70 1010.68 1011.46 1012.25 1013.25 1014.19 1015.18 1015.97 1016.69 1017.33 1018.19 1019.00
999.79 1000.96 1002.08 1002.92 1003.70 1004.68 1005.71 1006.63 1007.35 1008.14 1008.93 1009.92 1010.94 1011.77 1012.73 1013.77 1014.82 1015.57 1016.28 1016.88 1017.67 1018.45
999.65 1000.62 1001.65 1002.44 1003.20 1004.07 1005.09 1006.02 1006.89 1007.70 1008.32 1009.04 1010.14 1011.32 1012.17 1013.03 1014.12 1015.16 1016.02 1016.75 1017.37 1017.98
999.64 1000.32 1001.17 1002.06 1002.63 1003.74 1004.70 1005.72 1006.57 1007.37 1008.07 1008.68 1009.45 1010.79 1011.60 1012.39 1013.27 1014.24 1015.33 1016.26 1017.18 1017.92
Wind_Speed
18 12 13 15 12 11 11 11 11 11 11 10 9 7 6 4 4 4 4 5 4 3
17 17 15 18 14 12 11 9 11 12 12 11 10 10 8 6 6 5 4 5 5 4
18 17 16 15 16 16 14 13 13 13 12 12 10 10 9 6 5 6 4 4 7 4
19 18 16 16 16 16 15 15 15 15 13 13 12 10 10 8 8 8 7 5 7 7
18 18 18 17 17 17 17 16 16 15 14 13 12 11 12 10 9 10 10 8 8 8
19 19 20 19 18 17 17 17 16 15 16 15 14 12 11 11 10 10 10 10 10 10
21 20 19 17 18 18 18 17 17 16 16 15 14 13 12 11 10 9 9 10 10 10
18 18 17 17 17 17 17 17 17 16 15 15 14 11 14 12 12 11 9 9 9 9
16 17 17 16 17 16 16 16 16 16 16 16 12 16 17 15 12 12 11 10 8 7
16 17 16 16 17 17 17 16 16 16 16 16 15 20 20 18 11 12 11 11 10 8
16 16 15 16 17 16 15 16 16 16 16 15 12 21 21 19 12 11 11 12 12 12
16 15 15 16 16 14 14 14 14 14 16 16 13 21 22 18 12 10 11 10 11 12
15 16 16 16 16 14 13 14 11 13 15 16 14 21 24 19 10 11 8 7 8 13
14 15 15 14 13 13 13 12 12 13 12 14 15 17 25 20 12 11 10 9 8 6
Wind_Direction
185 180 180 178 175 183 187 185 180 182 181 180 175 173 168 170 180 173 212 171 146 131
189 181 183 180 178 177 178 177 174 181 180 179 179 177 172 178 179 175 187 196 148 137
192 187 182 178 176 179 175 169 171 178 182 178 178 176 174 171 166 170 176 181 150 140
191 185 182 181 178 177 171 170 174 176 180 181 179 175 177 176 166 175 166 168 159 150
188 183 180 181 178 173 174 175 175 173 178 182 182 175 177 174 172 172 171 172 153 155
189 188 183 180 175 174 170 174 173 174 177 179 182 177 177 176 173 175 172 171 167 165
188 188 181 176 174 175 173 172 175 178 179 178 178 179 173 171 171 171 167 171 169 168
183 182 178 175 174 175 176 174 176 174 176 174 178 179 174 172 170 167 161 164 166 171
172 176 177 171 170 170 176 175 173 176 175 176 180 173 169 167 169 167 168 167 164 156
166 173 175 168 167 171 175 173 174 177 176 181 183 167 167 163 168 167 172 165 162 152
163 169 168 169 169 172 172 176 176 176 177 178 182 168 166 163 163 167 171 166 167 166
162 161 166 172 171 168 170 175 178 177 175 176 177 169 165 163 166 166 166 162 164 163
158 161 171 172 168 166 172 175 173 176 180 175 168 173 168 170 167 168 162 156 156 163
163 166 168 166 161 161 167 166 173 173 178 173 166 174 171 171 169 173 169 170 164 170